Flag for Madagascar Weather past 2 weeks in Antananarivo, Madagascar

Now
70 °F

Broken clouds.


Feels Like: 70 °F
Forecast: 64 / 77 °F
Wind: 12 mph from Southeast

Location: Antananarivo / Ivato

Current Time: Jan 25, 2015 at 3:48:01 PM

Latest Report: Jan 25, 2015 at 3:00 PM


Visibility: N/A

Pressure: 30.12 "Hg

Humidity: 88%

Dew point: 66 °F

Location of AntananarivoLocation

Historic Weather in Antananarivo — Graph

°F

Antananarivo temperature yesterday

Maximum temperature yesterday: 75 °F (at 3:00 PM)
Minimum temperature yesterday: 61 °F (at 2:00 AM)
Average temperature yesterday: 67 °F

Past Weeks' High & Low Weather Summary

 TemperatureHumidityPressure
High86 °F (Jan 20, 1:30 PM)100% (Jan 10, 3:00 PM)30.39 "Hg (Jan 10, 3:00 PM)
Low61 °F (Jan 24, 2:00 AM)58% (Jan 19, 3:00 PM)29.71 "Hg (Jan 17, 2:30 AM)
Average70 °F95%30.02 "Hg
* Reported Jan 10 3:00 PM — Jan 25 3:00 PM, Antananarivo, Weather by CustomWeather, © 2014

Note: Actual official high and low records may vary slightly from our data, if they occured in-between our weather recording intervals... More about our weather records

Advertising

Antananarivo weather history for previous 24 hours

 ConditionsComfort  
Time TempWeatherWind HumidityBarometerVisibility
3:00 PM
Jan 25
70 °FBroken clouds.12 mph88%30.12 "HgN/A
2:30 PM73 °FBroken clouds.10 mph83%30.12 "HgN/A
2:00 PM75 °FBroken clouds.10 mph78%30.12 "HgN/A
1:00 PM77 °FBroken clouds.10 mph69%30.12 "HgN/A
12:30 PM77 °FBroken clouds.10 mph74%30.15 "HgN/A
12:00 PM75 °FBroken clouds.12 mph78%30.15 "HgN/A
11:30 AM77 °FBroken clouds.10 mph74%30.15 "HgN/A
11:00 AM73 °FBroken clouds.8 mph83%30.18 "HgN/A
10:30 AM73 °FBroken clouds.10 mph83%30.18 "HgN/A
10:00 AM73 °FBroken clouds.10 mph78%30.18 "HgN/A
9:30 AM72 °FBroken clouds.10 mph83%30.18 "HgN/A
9:00 AM73 °FBroken clouds.8 mph83%30.15 "HgN/A
8:30 AM68 °FBroken clouds.9 mph100%30.15 "HgN/A
8:00 AM68 °FPartly sunny.9 mph100%30.15 "HgN/A
7:30 AM66 °FPartly sunny.9 mph100%30.15 "HgN/A
7:00 AM64 °FPartly sunny.9 mph100%30.15 "HgN/A
6:30 AM64 °FPartly sunny.7 mph100%30.15 "HgN/A
6:00 AM64 °FPartly sunny.7 mph100%30.12 "HgN/A
5:30 AM64 °FPassing clouds.6 mph100%30.12 "HgN/A
5:00 AM64 °FPassing clouds.6 mph100%30.12 "HgN/A
4:30 AM63 °FPassing clouds.1 mph100%30.12 "HgN/A
4:00 AM64 °FPassing clouds.2 mph100%30.12 "HgN/A
3:30 AM64 °FPassing clouds.3 mph100%30.12 "HgN/A
3:00 AM64 °FPassing clouds.7 mph100%30.12 "HgN/A
2:30 AM64 °FPassing clouds.5 mph100%30.12 "HgN/A
2:00 AM64 °FPassing clouds.5 mph100%30.12 "HgN/A
1:00 AM64 °FPassing clouds.7 mph100%30.12 "HgN/A
12:30 AM63 °FPassing clouds.5 mph100%30.15 "HgN/A
12:00 AM63 °FPassing clouds.5 mph100%30.15 "HgN/A
11:30 PM
Jan 24
64 °FPassing clouds.3 mph100%30.15 "HgN/A
11:00 PM64 °FPassing clouds.6 mph100%30.18 "HgN/A
10:00 PM64 °FThundershowers. Passing clouds.5 mph100%30.18 "HgN/A
9:30 PM64 °FThundershowers. Passing clouds.6 mph100%30.15 "HgN/A
9:00 PM66 °FThundershowers. Passing clouds.9 mph100%30.15 "HgN/A
8:00 PM64 °FPassing clouds.9 mph100%30.12 "HgN/A
7:30 PM66 °FPassing clouds.9 mph100%30.12 "HgN/A
7:00 PM68 °FPassing clouds.10 mph100%30.12 "HgN/A
6:30 PM70 °FPartly sunny.8 mph88%30.09 "HgN/A
6:00 PM73 °FPartly sunny.8 mph89%30.09 "HgN/A
5:30 PM72 °FPartly sunny.8 mph88%30.09 "HgN/A
5:00 PM72 °FBroken clouds.8 mph88%30.09 "HgN/A
4:30 PM73 °FBroken clouds.8 mph83%30.07 "HgN/A
4:00 PM73 °FBroken clouds.9 mph83%30.07 "HgN/A
3:30 PM75 °FBroken clouds.7 mph78%30.07 "HgN/A
3:00 PM75 °FPartly sunny.9 mph83%30.07 "HgN/A
Weather by CustomWeather, © 2014

See weather overviewHow to use our weather pages